Flag for Italy Weather past 2 weeks in Cagliari, Italy

Now
70 °F

Passing clouds.


Feels Like: 70 °F
Forecast: 50 / 73 °F
Wind: 18 mph from Northwest

Location: Cagliari / Elmas

Current Time: Oct 23, 2014 at 2:41:33 PM

Latest Report: Oct 23, 2014 at 1:50 PM


Visibility: N/A

Pressure: 29.86 "Hg

Humidity: 50%

Dew point: 50 °F

Location of CagliariLocation

Historic Weather in Cagliari — Graph

°F

Cagliari temperature yesterday

Maximum temperature yesterday: 75 °F (at 12:20 AM)
Minimum temperature yesterday: 61 °F (at 10:20 PM)
Average temperature yesterday: 68 °F

Past Weeks' High & Low Weather Summary

 TemperatureHumidityPressure
High88 °F (Oct 13, 1:20 PM)100% (Oct 9, 7:20 PM)30.27 "Hg (Oct 9, 7:20 PM)
Low55 °F (Oct 23, 4:20 AM)29% (Oct 18, 1:50 PM)29.68 "Hg (Oct 14, 8:20 PM)
Average72 °F79%30.01 "Hg
* Reported Oct 8 1:20 PM — Oct 23 1:20 PM, Cagliari, Weather by CustomWeather, © 2014

Note: Actual official high and low records may vary slightly from our data, if they occured in-between our weather recording intervals... More about our weather records

Advertising

Cagliari weather history for previous 24 hours

 ConditionsComfort  
Time TempWeatherWind HumidityBarometerVisibility
1:20 PM
Oct 23
70 °FPassing clouds.15 mph50%29.89 "HgN/A
12:50 PM70 °FPassing clouds.14 mph46%29.89 "HgN/A
12:20 PM68 °FPassing clouds.13 mph49%29.92 "HgN/A
11:50 AM68 °FPassing clouds.12 mph49%29.92 "HgN/A
11:20 AM68 °FScattered clouds.12 mph49%29.95 "HgN/A
10:50 AM68 °FScattered clouds.12 mph53%29.95 "HgN/A
10:20 AM66 °FPassing clouds.8 mph60%29.95 "HgN/A
9:50 AM63 °FPassing clouds.7 mph73%29.95 "HgN/A
9:20 AM61 °FPassing clouds.5 mph77%29.95 "HgN/A
8:50 AM57 °FPassing clouds.3 mph82%29.95 "HgN/A
8:20 AM55 °FPassing clouds.3 mph82%29.95 "HgN/A
7:50 AM55 °FPassing clouds.3 mph82%29.95 "HgN/A
7:20 AM55 °FPassing clouds.6 mph82%29.95 "HgN/A
6:50 AM57 °FPassing clouds.6 mph82%29.95 "HgN/A
6:20 AM57 °FPassing clouds.6 mph82%29.95 "HgN/A
5:50 AM55 °FPassing clouds.7 mph82%29.95 "HgN/A
5:20 AM55 °FPassing clouds.3 mph82%29.95 "HgN/A
4:50 AM55 °FClear.5 mph82%29.95 "Hg10 mi
4:20 AM55 °FClear.6 mph82%29.95 "Hg10 mi
3:50 AM57 °FClear.6 mph77%29.98 "Hg10 mi
3:20 AM57 °FClear.2 mph77%29.98 "Hg10 mi
2:50 AM57 °FClear.5 mph77%29.98 "Hg10 mi
2:20 AM57 °FPassing clouds.3 mph77%29.98 "HgN/A
1:50 AM59 °FPassing clouds.3 mph72%29.98 "HgN/A
1:20 AM59 °FPassing clouds.7 mph77%29.98 "HgN/A
12:50 AM59 °FPassing clouds.7 mph77%29.98 "HgN/A
12:20 AM61 °FPassing clouds.7 mph72%29.98 "HgN/A
11:50 PM
Oct 22
61 °FPassing clouds.10 mph72%29.98 "HgN/A
11:20 PM61 °FPassing clouds.12 mph68%29.98 "HgN/A
10:50 PM63 °FPassing clouds.10 mph64%29.98 "HgN/A
10:20 PM61 °FPassing clouds.9 mph68%29.98 "HgN/A
9:50 PM63 °FPassing clouds.8 mph59%29.98 "HgN/A
9:20 PM63 °FPassing clouds.12 mph59%29.95 "HgN/A
8:50 PM63 °FPassing clouds.17 mph59%29.95 "HgN/A
8:20 PM63 °FPassing clouds.20 mph56%29.92 "HgN/A
7:50 PM63 °FPassing clouds.17 mph59%29.92 "HgN/A
7:20 PM64 °FPassing clouds.21 mph52%29.92 "HgN/A
6:50 PM64 °FPassing clouds.18 mph56%29.89 "HgN/A
6:20 PM64 °FScattered clouds.22 mph56%29.89 "HgN/A
5:50 PM66 °FScattered clouds.20 mph52%29.89 "HgN/A
5:20 PM64 °FPassing clouds.22 mph56%29.86 "HgN/A
4:50 PM66 °FScattered clouds.24 mph56%29.86 "HgN/A
4:20 PM66 °FScattered clouds.21 mph56%29.89 "HgN/A
3:50 PM66 °FScattered clouds.24 mph52%29.89 "HgN/A
3:20 PM66 °FScattered clouds.24 mph52%29.89 "HgN/A
2:50 PM68 °FPassing clouds.22 mph49%29.89 "HgN/A
2:20 PM68 °FPassing clouds.25 mph49%29.89 "HgN/A
Weather by CustomWeather, © 2014

See weather overviewHow to use our weather pages